494  
ASUS41 KPHI 252312  
RWRPHI  
 
REGIONAL WEATHER ROUNDUP  
NATIONAL WEATHER SERVICE MOUNT HOLLY NJ  
700 PM EDT SUN JUN 25 2017  
 
NOTE: "FAIR" INDICATES FEW OR NO CLOUDS BELOW 12,000 FEET WITH NO  
SIGNIFICANT WEATHER AND/OR S TO VISIBILITY
.  
 
* = STATION DOES NOT REPORT PRECIPITATION (E.G. RAIN, SNOW, ETC.)  
OR FOG.
 
 
NJZ015>026-260000-  
SOUTHERN NEW JERSEY  
 
CITY SKY/WX TMP DP RH WIND PRES REMARKS
 
POMONA NOT AVBL  
WILDWOOD* SUNNY 76 63 64 S12 29.98R  
MILLVILLE PTSUNNY 79 65 62 VRB3 29.95R  
WRIGHTSTOWN PTSUNNY 84 57 39 W7 29.92S  
MOUNT HOLLY PTSUNNY 81 56 42 W6 29.93R  
TRENTON MOSUNNY 82 55 39 W7 29.93R  
 

 
NJZ001>014-260000-  
NORTHERN NEW JERSEY  
 
CITY SKY/WX TMP DP RH WIND PRES REMARKS
 
SUSSEX SUNNY 79 54 41 W6 29.92S  
ANDOVER* N/A 78 51 38 VRB6 29.94R  
MORRISTOWN MOSUNNY 81 52 36 W10 29.92S  
NEWARK PTSUNNY 82 54 37 W12 29.91S  
TETERBORO SUNNY 80 57 45 CALM 29.90S  
CALDWELL SUNNY 82 57 42 W6 29.92S  
SOMERVILLE SUNNY 81 57 43 VRB3 29.91R  
ALLAIRE* CLOUDY 75 64 68 SE5 29.95R  
TOMS RIVER* MOSUNNY 79 61 53 S9 29.94R  
 

 
PAZ043-044-047-054-055-060>062-066>071-260000-  
EASTERN PENNSYLVANIA  
 
CITY SKY/WX TMP DP RH WIND PRES REMARKS
 
PHILADELPHIA PTSUNNY 84 52 33 W16 29.94R  
NORTH PHILA SUNNY 83 56 39 W9 29.94R  
BLUE BELL* MOSUNNY 77 54 44 W5 29.96R  
DOYLESTOWN SUNNY 80 56 43 VRB6 29.94R  
QUAKERTOWN* SUNNY 77 54 44 NW3 29.96R  
PERKASIE* FAIR 75 57 53 CALM 29.96S  
POTTSTOWN MOSUNNY 79 54 41 VRB7 29.96R  
LANCASTER MOSUNNY 78 54 43 W9 29.97R  
COATESVILLE SUNNY 77 52 41 VRB7G16 29.99R  
READING PTSUNNY 80 56 43 W8 29.94R  
ALLENTOWN MOSUNNY 79 52 38 W8 29.94R  
MOUNT POCONO MOSUNNY 71 49 45 W13 29.99S  
HAZLETON N/A 73 48 40 SW7 30.02R  
LEHIGHTON FAIR 77 50 38 W3 29.95S  
WILKES BARRE MOSUNNY 76 48 37 W13 29.95R  
 

 
DEZALL-MDZ008-012-015-019-020-260000-  
DELAWARE AND EASTERN MARYLAND  
 
CITY SKY/WX TMP DP RH WIND PRES REMARKS
 
WILMINGTON SUNNY 83 52 34 W16 29.95R  
DOVER MOSUNNY 83 63 51 SW12 29.95R  
GEORGETOWN MOSUNNY 82 59 45 SW5 29.97R  
EASTON MOSUNNY 82 59 44 CALM 30.01R  
PATUXENT PTSUNNY 81 62 52 SW3 29.98R  
OCEAN CITY SUNNY 73 65 75 S5 29.99R  
WALLOPS ISLAND SUNNY 79 69 71 S8 29.99R  
CAMBRIDGE SUNNY 82 61 47 VRB6 29.97R  
SALISBURY MOSUNNY 81 61 50 SW7 29.98R  
 

 
PAZ001-021-NYZ056-072-MDZ011-DCZ001-260000-  
OTHER NEARBY LOCATIONS  
 
CITY SKY/WX TMP DP RH WIND PRES REMARKS
 
HARRISBURG MOSUNNY 80 48 32 W18G28 29.96R  
STATE COLLEGE PTSUNNY 72 46 40 W16G23 30.01R  
WILLIAMSPORT MOSUNNY 77 45 32 W14G22 29.94R  
BINGHAMTON MOSUNNY 66 48 52 NW7 29.97R  
NEW YORK CITY MOSUNNY 76 58 53 CALM 29.95S  
BALTIMORE MOSUNNY 82 46 28 W15G23 29.98R  
WASHINGTON DC PTSUNNY 84 46 26 NW18 29.99R  
 

 
 
 
CLICK HERE TO GO TO PREVIOUS BULLETINS.

The Nexlab PA Page
The Nexlab NJ Page
The Nexlab DE Page
The Nexlab MD Page Main Text Page